Date,TemperatureHighF,TemperatureAvgF,TemperatureLowF,DewpointHighF,DewpointAvgF,DewpointLowF,HumidityHigh,HumidityAvg,HumidityLow,PressureMaxIn,PressureMinIn,WindSpeedMaxMPH,WindSpeedAvgMPH,GustSpeedMaxMPH,PrecipitationSumIn
2013-1-1,35.4,29.1,21.0,32.1,21.2,5.3,97,74,48,32.27,32.27,0,0,0,0.00
2013-1-2,33.1,20.7,15.1,11.4,7.8,4.0,80,58,38,32.27,32.27,9,1,9,0.00
2013-1-3,34.7,24.1,13.5,16.5,11.2,5.5,80,59,40,32.27,32.27,17,5,17,0.00
2013-1-4,35.6,29.9,26.4,18.7,15.1,11.7,64,54,44,32.27,32.27,21,8,21,0.00
2013-1-5,43.7,33.3,25.2,21.2,17.1,14.1,69,52,35,32.27,32.27,15,6,15,0.00
2013-1-6,38.8,34.2,26.8,32.0,23.1,18.7,91,64,52,32.27,32.27,22,6,22,0.00
2013-1-7,42.3,31.7,26.8,23.0,20.2,16.7,79,64,38,32.27,32.27,10,4,10,0.00
2013-1-8,50.2,36.3,25.2,26.1,21.6,18.0,79,57,38,32.27,32.27,13,4,13,0.00
2013-1-9,51.8,43.8,35.8,40.2,29.1,19.3,84,56,43,32.27,32.27,20,7,20,0.00
2013-1-10,42.1,37.8,29.7,29.1,25.2,23.3,89,61,49,32.27,32.27,11,4,11,0.00
2013-1-11,62.1,52.0,41.9,52.1,43.0,25.1,91,73,50,32.27,32.27,20,6,20,0.00
2013-1-12,66.7,58.1,50.0,59.1,53.9,47.1,93,86,59,32.27,32.27,13,4,13,0.00
2013-1-13,64.4,59.1,39.7,59.8,52.2,37.6,94,78,63,32.27,27.08,24,8,24,0.00
2013-1-14,39.7,31.3,26.2,37.6,22.0,16.1,92,68,53,28.97,28.23,15,4,15,0.00
2013-1-15,32.2,28.3,23.7,20.2,17.8,15.4,80,65,52,0.00,40.00,11,4,11,0.00
2013-1-16,34.7,31.8,29.8,27.3,24.4,18.0,83,74,58,0.00,40.00,13,4,13,0.00
2013-1-17,39.4,33.1,27.9,25.7,21.4,13.0,72,62,47,0.00,40.00,15,4,15,0.00
2013-1-18,36.9,28.5,18.7,14.2,9.9,3.4,62,46,34,0.00,40.00,19,7,19,0.00
2013-1-19,55.8,45.0,33.1,28.2,16.6,13.3,81,33,20,32.27,40.00,24,11,24,0.00
2013-1-20,46.8,33.8,23.4,26.1,11.3,4.8,52,39,31,0.00,40.00,27,8,27,0.00
2013-1-21,27.7,20.2,9.5,12.0,3.5,-7.5,65,48,42,0.00,40.00,28,8,28,0.00
2013-1-22,18.0,10.8,5.9,-3.7,-8.9,-11.3,45,40,34,0.00,40.00,20,7,20,0.00
2013-1-23,20.7,14.6,8.6,11.5,-3.4,-13.4,79,46,34,0.00,40.00,13,5,13,0.00
2013-1-24,23.2,17.2,12.9,11.6,4.0,-1.9,81,57,38,0.00,40.00,17,3,17,0.00
2013-1-25,26.1,19.1,15.1,19.1,7.3,-0.7,86,60,46,0.00,40.00,12,4,12,0.00
2013-1-26,31.6,25.3,19.9,18.9,14.1,6.4,84,63,49,0.00,40.00,13,4,13,0.00
2013-1-27,38.7,26.6,14.7,27.8,12.0,6.1,85,55,39,0.00,40.00,10,4,10,0.00
2013-1-28,52.7,44.3,31.8,50.3,41.5,28.1,96,90,74,0.00,40.00,19,6,19,0.00
2013-1-29,70.9,60.6,52.5,51.2,47.9,42.1,93,66,38,0.00,40.00,22,9,22,0.00
2013-1-30,64.9,55.8,34.3,55.5,46.1,27.9,92,71,53,0.00,40.00,42,11,42,0.00
2013-1-31,34.3,26.6,20.3,28.2,13.8,4.7,84,59,42,0.00,40.00,33,12,33,0.00